Location: Seattle
(47.6064°N, 122.3308°W)
Time: 21:10:18
(UTC-07:00)

Transit 2A Rocket - Visible Passes

Search period start: 27 July 2021 00:00
Search period end: 06 August 2021 00:00
Orbit: 589 x 913 km, 66.7° (Epoch: 27 July)

Date Brightness Start Highest point End Pass type
(mag) Time Alt. Az. Time Alt. Az. Time Alt. Az.
27 Jul 5.3 00:40:42 10° NNW 00:46:06 68° NE 00:48:12 39° ESE visible
27 Jul 6.5 02:23:59 10° WNW 02:28:04 24° WSW 02:28:04 24° WSW visible
27 Jul 7.5 22:16:34 10° N 22:19:26 14° NNE 22:22:26 10° ENE visible
27 Jul 5.9 23:58:10 10° NNW 00:03:20 45° NE 00:06:14 26° ESE visible
28 Jul 5.8 01:40:51 10° NW 01:45:55 38° WSW 01:46:06 38° WSW visible
28 Jul 7.6 21:34:25 10° N 21:36:12 12° NNE 21:38:02 10° NE visible
28 Jul 6.5 23:15:42 10° NNW 23:20:28 32° NE 23:24:20 16° E visible
29 Jul 5.2 00:57:59 10° NW 01:03:23 60° WSW 01:04:12 54° SSW visible
29 Jul 6.9 22:33:17 10° NNW 22:37:30 23° NE 22:41:58 10° E visible
30 Jul 5.1 00:15:17 10° NW 00:20:47 88° NE 00:22:21 51° SE visible
30 Jul 6.9 01:59:10 10° WNW 02:02:13 17° W 02:02:13 17° W visible
30 Jul 7.2 21:50:56 10° N 21:54:25 17° NNE 21:58:05 10° ENE visible
30 Jul 5.5 23:32:41 10° NNW 23:38:04 59° NE 23:40:32 33° ESE visible
31 Jul 6.3 01:15:44 10° NW 01:20:25 28° WSW 01:20:25 28° WSW visible
31 Jul 6.1 22:50:11 10° NNW 22:55:16 40° NE 22:58:48 20° ESE visible
01 Aug 5.7 00:32:43 10° NW 00:37:59 45° WSW 00:38:40 43° SW visible
01 Aug 6.6 22:07:43 10° NNW 22:12:22 28° NE 22:17:05 11° E visible
01 Aug 5.2 23:49:55 10° NW 23:55:25 71° WSW 23:56:58 49° S visible
02 Aug 7.3 01:34:52 10° W 01:36:51 13° W 01:36:51 13° W visible
02 Aug 6.9 21:25:20 10° NNW 21:29:21 21° NE 21:33:36 10° E visible
02 Aug 5.2 23:07:15 10° NNW 23:12:46 77° NE 23:15:18 35° SE visible
03 Aug 6.8 00:50:47 10° WNW 00:54:55 21° WSW 00:55:11 21° WSW visible
03 Aug 5.7 22:24:42 10° NNW 22:30:02 51° NE 22:33:41 22° ESE visible
04 Aug 6.2 00:07:32 10° NW 00:12:31 34° WSW 00:13:34 31° SW visible
04 Aug 6.2 21:42:12 10° NNW 21:47:12 35° NE 21:52:06 12° ESE visible
04 Aug 5.6 23:24:36 10° NW 23:30:01 53° WSW 23:31:59 37° S visible
05 Aug 5.2 22:41:52 10° NW 22:47:26 82° WSW 22:50:27 30° SSE visible
